TimeCDT,TemperatureF,Dew PointF,Humidity,Sea Level PressureIn,VisibilityMPH,Wind Direction,Wind SpeedMPH,Gust SpeedMPH,PrecipitationIn,Events,Conditions,WindDirDegrees,DateUTC
12:15 AM,79.9,67.1,65,29.91,10.0,SSE,10.4,-,N/A,,Overcast,150,2013-09-28 05:15:00
12:35 AM,79.7,67.1,65,29.91,10.0,SSE,11.5,18.4,N/A,,Overcast,150,2013-09-28 05:35:00
12:55 AM,79.2,67.1,66,29.91,10.0,SSE,11.5,18.4,N/A,,Overcast,150,2013-09-28 05:55:00
1:15 AM,78.8,67.1,67,29.91,10.0,SSE,10.4,-,N/A,,Overcast,150,2013-09-28 06:15:00
1:35 AM,78.8,67.5,68,29.91,10.0,SSE,11.5,-,N/A,,Overcast,150,2013-09-28 06:35:00
1:55 AM,78.3,67.5,69,29.90,10.0,SSE,10.4,-,N/A,,Overcast,150,2013-09-28 06:55:00
2:15 AM,77.9,67.6,71,29.90,10.0,SSE,11.5,-,N/A,,Mostly Cloudy,150,2013-09-28 07:15:00
2:35 AM,77.4,68.0,73,29.91,10.0,SSE,10.4,-,N/A,,Scattered Clouds,150,2013-09-28 07:35:00
2:55 AM,77.0,68.2,74,29.91,10.0,SSE,10.4,-,N/A,,Mostly Cloudy,150,2013-09-28 07:55:00
3:15 AM,76.8,68.4,75,29.89,10.0,SSE,12.7,-,N/A,,Mostly Cloudy,150,2013-09-28 08:15:00
3:35 AM,76.3,68.7,77,29.90,10.0,SSE,9.2,-,N/A,,Scattered Clouds,160,2013-09-28 08:35:00
3:55 AM,76.5,69.1,78,29.91,10.0,SSE,10.4,-,N/A,,Mostly Cloudy,160,2013-09-28 08:55:00
4:15 AM,76.3,69.1,78,29.90,10.0,SSE,8.1,-,N/A,,Overcast,150,2013-09-28 09:15:00
4:35 AM,76.1,68.9,78,29.90,10.0,SE,8.1,-,N/A,,Overcast,130,2013-09-28 09:35:00
4:55 AM,75.7,68.9,79,29.91,10.0,SE,9.2,-,N/A,,Overcast,140,2013-09-28 09:55:00
5:15 AM,75.6,68.4,78,29.91,10.0,SE,11.5,-,N/A,,Overcast,130,2013-09-28 10:15:00
5:35 AM,75.4,67.6,77,29.91,10.0,SE,10.4,-,N/A,,Overcast,130,2013-09-28 10:35:00
5:55 AM,75.4,68.0,78,29.92,10.0,SE,9.2,-,N/A,,Overcast,140,2013-09-28 10:55:00
6:15 AM,75.2,68.2,79,29.94,10.0,SE,10.4,-,N/A,,Overcast,140,2013-09-28 11:15:00
6:35 AM,75.2,68.5,80,29.93,10.0,SE,10.4,-,N/A,,Overcast,140,2013-09-28 11:35:00
6:55 AM,75.2,68.9,81,29.93,10.0,SE,9.2,-,N/A,,Overcast,130,2013-09-28 11:55:00
7:15 AM,75.2,68.9,81,29.93,10.0,SE,10.4,-,N/A,,Mostly Cloudy,140,2013-09-28 12:15:00
7:35 AM,75.2,69.3,82,29.94,10.0,SE,12.7,-,N/A,,Overcast,140,2013-09-28 12:35:00
7:55 AM,75.4,69.3,81,29.94,10.0,SE,12.7,18.4,N/A,,Overcast,140,2013-09-28 12:55:00
8:15 AM,75.6,69.6,82,29.95,10.0,SSE,11.5,-,N/A,,Overcast,150,2013-09-28 13:15:00
8:35 AM,76.5,70.0,80,29.95,10.0,SSE,9.2,16.1,N/A,,Overcast,150,2013-09-28 13:35:00
8:55 AM,76.6,70.2,80,29.96,10.0,SSE,15.0,21.9,N/A,,Overcast,150,2013-09-28 13:55:00
9:15 AM,76.6,70.2,80,29.96,10.0,SSE,12.7,-,N/A,,Overcast,160,2013-09-28 14:15:00
9:35 AM,77.5,70.5,79,29.97,10.0,SSE,10.4,19.6,N/A,,Overcast,150,2013-09-28 14:35:00
9:55 AM,78.8,70.7,76,29.98,10.0,SSE,13.8,18.4,N/A,,Overcast,160,2013-09-28 14:55:00
10:15 AM,78.8,70.9,77,29.98,10.0,SSE,10.4,18.4,N/A,,Overcast,160,2013-09-28 15:15:00
10:35 AM,78.4,70.7,77,29.99,10.0,SSE,9.2,-,N/A,,Overcast,160,2013-09-28 15:35:00
10:55 AM,78.4,70.7,77,29.99,10.0,SSE,11.5,-,N/A,,Overcast,160,2013-09-28 15:55:00
11:15 AM,79.2,71.1,76,29.98,10.0,SSE,10.4,-,N/A,,Overcast,160,2013-09-28 16:15:00
11:35 AM,80.6,71.4,73,29.98,10.0,SSE,10.4,-,N/A,,Overcast,160,2013-09-28 16:35:00
11:55 AM,81.1,71.8,73,29.98,10.0,South,13.8,-,N/A,,Overcast,170,2013-09-28 16:55:00
12:15 PM,81.7,71.6,71,29.98,10.0,South,12.7,-,N/A,,Overcast,180,2013-09-28 17:15:00
12:35 PM,84.9,71.4,64,29.96,10.0,South,12.7,19.6,N/A,,Mostly Cloudy,170,2013-09-28 17:35:00
12:55 PM,84.4,71.6,65,29.96,10.0,South,13.8,19.6,N/A,,Mostly Cloudy,170,2013-09-28 17:55:00
1:15 PM,85.3,71.6,63,29.95,10.0,South,13.8,19.6,N/A,,Scattered Clouds,170,2013-09-28 18:15:00
1:35 PM,86.0,71.6,62,29.93,10.0,South,15.0,20.7,N/A,,Mostly Cloudy,190,2013-09-28 18:35:00
1:55 PM,88.0,71.4,58,29.92,10.0,South,12.7,17.3,N/A,,Scattered Clouds,170,2013-09-28 18:55:00
2:15 PM,88.2,70.7,56,29.91,10.0,South,11.5,23.0,N/A,,Mostly Cloudy,180,2013-09-28 19:15:00
2:35 PM,87.4,70.2,56,29.91,10.0,South,16.1,20.7,N/A,,Mostly Cloudy,180,2013-09-28 19:35:00
2:55 PM,86.0,69.6,58,29.90,10.0,South,15.0,-,N/A,,Overcast,190,2013-09-28 19:55:00
3:15 PM,77.0,70.0,79,29.93,5.0,West,26.5,33.4,N/A,,Overcast,260,2013-09-28 20:15:00
3:35 PM,73.9,71.1,91,29.93,0.2,WNW,9.2,-,0.01,,Overcast,300,2013-09-28 20:35:00
3:55 PM,74.3,71.6,91,29.94,7.0,SSW,4.6,-,0.02,,Overcast,210,2013-09-28 20:55:00
4:15 PM,74.5,71.8,91,29.94,10.0,WNW,3.5,-,0.01,,Mostly Cloudy,300,2013-09-28 21:15:00
4:35 PM,74.8,72.0,91,29.95,10.0,WNW,3.5,-,0.01,,Overcast,290,2013-09-28 21:35:00
4:55 PM,74.8,71.4,89,29.95,10.0,WNW,13.8,-,0.01,,Overcast,300,2013-09-28 21:55:00
5:15 PM,73.0,69.8,90,29.95,2.0,NNW,3.5,-,0.01,,Overcast,340,2013-09-28 22:15:00
5:35 PM,73.0,69.8,90,29.96,3.0,NNW,8.1,-,0.01,,Overcast,330,2013-09-28 22:35:00
5:55 PM,72.5,69.4,90,29.94,10.0,North,8.1,-,0.01,,Mostly Cloudy,10,2013-09-28 22:55:00
6:15 PM,72.5,69.8,91,29.94,7.0,North,6.9,-,N/A,,Mostly Cloudy,360,2013-09-28 23:15:00
6:35 PM,73.0,69.8,90,29.94,10.0,North,8.1,-,N/A,,Scattered Clouds,10,2013-09-28 23:35:00
6:55 PM,72.7,69.3,89,29.96,10.0,NNE,5.8,-,N/A,,Scattered Clouds,20,2013-09-28 23:55:00
7:15 PM,72.7,69.1,88,29.99,10.0,North,5.8,-,N/A,,Mostly Cloudy,10,2013-09-29 00:15:00
7:35 PM,72.5,69.3,90,29.99,10.0,NNW,5.8,-,N/A,,Overcast,340,2013-09-29 00:35:00
7:55 PM,72.5,69.1,89,30.00,10.0,North,5.8,-,N/A,,Overcast,360,2013-09-29 00:55:00
8:15 PM,72.5,69.1,89,30.01,10.0,NNW,8.1,-,N/A,,Overcast,330,2013-09-29 01:15:00
8:35 PM,71.1,68.0,90,30.01,10.0,NNW,8.1,-,N/A,,Overcast,340,2013-09-29 01:35:00
8:55 PM,70.0,67.3,91,30.02,10.0,NNW,8.1,-,N/A,,Overcast,340,2013-09-29 01:55:00
9:15 PM,69.8,67.3,92,30.02,10.0,NNW,9.2,-,N/A,,Overcast,330,2013-09-29 02:15:00
9:35 PM,68.5,66.2,92,30.03,7.0,NNW,9.2,-,N/A,,Overcast,330,2013-09-29 02:35:00
9:55 PM,67.6,65.1,92,30.04,5.0,NNW,9.2,-,N/A,,Overcast,330,2013-09-29 02:55:00
10:15 PM,66.9,64.4,92,30.04,7.0,NNW,9.2,-,N/A,,Overcast,340,2013-09-29 03:15:00
10:35 PM,66.6,64.4,93,30.04,7.0,NNW,10.4,-,N/A,,Overcast,330,2013-09-29 03:35:00
10:55 PM,66.4,64.0,92,30.05,5.0,NNW,10.4,-,N/A,,Overcast,330,2013-09-29 03:55:00
11:15 PM,66.2,63.5,91,30.04,10.0,NNW,10.4,-,N/A,,Overcast,330,2013-09-29 04:15:00
11:35 PM,66.0,63.5,92,30.04,10.0,NNW,9.2,-,0.01,,Overcast,330,2013-09-29 04:35:00
11:55 PM,66.2,63.1,90,30.04,10.0,NNW,10.4,-,0.01,,Overcast,340,2013-09-29 04:55:00